Temp
19 20 20 20 17 14 17 20 19 20 19 21 21 20 17 16 17 16 17 16 16 16 15 15 16 16 15 15 15 15 15 15 15 15 15 16 16 16 16 16 16 16 16 15 15 15 15 15 15
20 20 21 20 15 15 16 19 19 19 20 21 20 19 18 16 16 16 16 16 16 15 15 15 16 16 16 15 15 15 15 15 15 15 15 15 16 16 16 15 15 16 16 15 15 15 15 15 15
20 20 20 13 12 16 17 18 17 19 20 21 20 19 18 16 16 16 16 16 15 15 15 15 15 16 16 15 15 15 15 15 15 15 15 15 15 15 15 15 15 15 15 15 15 15 15 15 15
19 20 19 15 19 20 18 16 17 18 20 21 20 16 18 17 16 16 16 15 15 15 14 14 15 15 15 15 15 15 15 15 15 15 14 14 15 15 15 15 15 15 15 15 15 15 15 15 15
19 19 14 16 18 20 17 18 19 18 20 20 20 17 16 16 16 16 16 15 15 15 14 14 15 15 15 15 15 15 15 15 14 14 14 14 14 14 14 15 15 15 15 15 15 14 14 14 14
19 17 14 17 18 19 18 20 19 18 19 20 18 17 17 16 16 16 15 15 15 15 15 14 15 15 15 15 15 15 14 15 14 14 14 14 14 14 14 14 14 15 14 14 14 14 14 14 14
16 13 15 17 18 19 19 20 19 18 18 20 19 14 15 16 16 16 16 15 15 14 14 15 15 15 15 15 15 14 15 15 14 14 14 13 14 14 14 14 14 14 14 14 14 14 14 14 14
19 13 18 18 17 19 20 21 21 21 18 21 21 14 14 16 16 16 16 16 15 14 15 15 15 15 15 15 15 14 14 14 14 14 13 13 13 13 13 13 13 13 13 13 13 13 13 13 13
18 13 15 19 18 19 20 20 20 21 20 20 20 20 20 17 16 15 15 15 14 14 15 15 15 15 14 14 14 14 14 14 14 13 13 13 12 12 12 12 12 12 13 13 13 13 13 13 13
16 12 16 19 19 18 20 20 20 20 20 20 19 20 20 17 16 16 15 15 14 15 15 15 15 15 14 14 14 14 14 14 13 13 12 12 11 11 12 12 12 12 12 12 13 13 13 13 13
16 15 17 19 19 19 19 19 20 19 18 20 20 19 18 17 16 17 17 16 16 15 15 15 14 14 14 14 14 13 13 13 13 13 12 12 11 12 11 11 11 11 11 11 12 12 13 13 13
18 18 18 19 19 19 18 19 19 19 21 21 21 20 19 18 17 17 17 16 15 14 15 15 14 14 14 14 14 14 14 14 13 13 13 13 12 12 11 11 10 10 10 10 11 12 13 12 12
17 18 19 18 18 18 18 18 17 18 21 21 20 19 18 18 18 18 17 17 16 15 14 14 14 15 15 14 14 14 14 14 13 13 13 12 12 11 10 10 10 10 10 11 11 11 11 11 11
18 18 18 18 18 17 17 17 18 20 21 20 19 19 19 18 19 18 17 16 16 16 15 15 14 14 14 14 14 14 14 13 13 12 12 11 12 11 11 10 10 10 11 11 11 12 12 12 12
17 17 16 16 17 17 17 16 14 20 20 20 20 20 19 19 18 18 19 18 17 17 16 15 15 14 14 14 13 13 12 12 12 12 12 12 12 11 12 12 12 12 11 11 12 12 12 12 12
16 15 15 16 15 16 16 16 17 19 19 19 19 19 19 19 19 19 18 18 17 17 16 15 15 14 14 14 13 12 12 12 12 12 12 12 12 12 12 12 12 12 12 12 12 12 12 12 11
13 14 14 16 15 15 15 16 17 19 19 19 19 19 19 19 19 18 18 18 17 17 16 15 15 15 14 14 13 12 12 12 12 12 12 12 12 12 12 12 12 12 12 12 12 12 12 11 11
14 14 15 16 15 15 14 13 13 18 17 18 19 19 20 19 20 20 19 19 18 17 17 16 16 15 14 14 13 12 12 11 11 12 12 12 12 12 12 12 12 12 12 12 12 12 12 12 12
14 16 17 17 15 15 13 12 12 16 16 16 18 19 19 20 20 20 19 19 18 17 17 16 16 15 14 14 13 13 12 12 12 12 12 12 12 12 12 12 12 12 12 12 12 12 11 11 11
15 16 15 15 14 14 14 13 12 13 13 13 14 16 16 16 18 20 20 19 18 18 17 16 16 15 15 14 14 13 13 12 12 11 12 12 12 12 12 12 12 12 12 12 11 11 11 11 11
14 13 14 15 14 14 13 12 12 13 11 11 11 12 13 14 16 18 20 19 18 17 17 16 16 15 15 15 14 13 12 11 11 11 11 12 11 11 11 11 11 11 11 11 11 11 11 11 11
15 14 15 14 11 11 12 12 12 12 9 8 8 10 11 13 14 15 16 17 17 17 16 16 15 15 15 14 14 13 13 12 12 12 11 11 11 11 11 11 11 11 11 11 11 11 11 11 10
14 14 13 13 10 10 11 8 11 11 10 7 7 8 10 11 12 13 14 15 15 15 15 15 14 14 13 13 13 13 12 12 11 11 11 11 10 11 11 11 11 11 11 11 11 11 11 10 10
10 11 9 7 6 7 10 10 11 11 10 8 7 7 8 10 11 11 11 12 12 13 13 13 13 12 12 12 12 12 12 11 11 10 10 10 10 10 11 11 11 10 10 10 10 10 10 10 10
11 10 6 7 5 10 10 10 10 8 7 7 6 6 7 8 10 10 11 11 11 12 12 12 11 11 11 11 11 11 10 10 10 10 9 9 9 10 10 11 11 10 10 10 10 10 10 9 9
9 10 7 8 7 10 10 9 9 7 7 7 6 6 7 7 8 8 8 9 9 10 10 10 10 10 10 9 9 10 9 9 9 9 9 9 9 9 9 9 10 10 10 9 9 9 9 9 9
10 10 10 8 9 7 8 8 9 7 6 6 6 6 6 6 6 7 8 8 8 9 9 10 10 10 10 10 10 9 9 9 8 9 9 9 9 9 9 8 9 9 9 9 9 9 9 8 8
10 10 9 7 8 10 8 8 7 6 6 5 5 5 5 5 6 6 7 7 8 8 9 9 9 10 10 10 10 10 10 9 9 8 8 8 8 8 8 8 8 8 8 8 8 8 8 8 8
9 10 10 9 6 7 8 9 8 7 6 5 4 5 4 5 5 5 6 6 6 7 8 8 8 9 9 9 9 9 9 9 8 8 9 8 7 7 7 7 7 8 8 7 7 7 7 7 7
9 9 9 8 9 5 5 7 5 5 5 5 4 4 4 4 4 4 4 5 5 6 6 6 6 7 7 7 7 8 8 8 7 7 7 7 7 7 7 7 7 7 7 7 7 7 7 7 7
Height
1518 1518 1518 1518 1530 1535 1538 1530 1524 1524 1524 1523 1523 1524 1529 1531 1533 1543 1538 1540 1542 1543 1545 1546 1547 1548 1549 1550 1551 1552 1552 1552 1553 1553 1553 1553 1553 1553 1553 1554 1554 1554 1553 1553 1553 1554 1554 1554 1554
1517 1518 1519 1519 1539 1548 1542 1525 1527 1523 1523 1524 1525 1527 1529 1534 1533 1535 1537 1541 1542 1543 1544 1546 1547 1548 1549 1549 1550 1551 1552 1553 1553 1554 1554 1555 1555 1555 1555 1556 1556 1556 1556 1556 1556 1556 1556 1556 1556
1518 1518 1519 1525 1543 1545 1539 1525 1525 1523 1523 1524 1526 1527 1530 1533 1534 1535 1538 1540 1542 1543 1545 1546 1547 1547 1548 1549 1550 1552 1552 1553 1554 1555 1555 1556 1557 1557 1557 1557 1557 1557 1558 1558 1558 1558 1558 1558 1558
1518 1519 1522 1533 1533 1524 1524 1524 1522 1523 1524 1524 1525 1529 1531 1532 1533 1535 1538 1540 1541 1543 1544 1546 1547 1548 1548 1549 1551 1552 1552 1553 1554 1555 1556 1557 1558 1558 1559 1559 1559 1559 1559 1560 1560 1560 1560 1560 1560
1518 1518 1532 1536 1529 1522 1521 1522 1522 1521 1522 1524 1526 1530 1531 1532 1534 1535 1537 1539 1541 1543 1544 1545 1547 1548 1549 1550 1551 1552 1553 1554 1555 1556 1557 1557 1558 1558 1559 1559 1560 1560 1560 1561 1561 1561 1561 1561 1561
1518 1520 1538 1538 1529 1522 1522 1522 1522 1522 1523 1524 1526 1529 1531 1533 1533 1535 1537 1539 1541 1542 1543 1545 1546 1548 1549 1551 1552 1553 1554 1554 1555 1556 1557 1558 1559 1559 1559 1560 1561 1561 1561 1561 1562 1562 1562 1562 1562
1518 1525 1534 1531 1530 1525 1522 1521 1522 1522 1523 1524 1525 1531 1532 1533 1534 1535 1537 1538 1539 1541 1543 1544 1546 1548 1550 1551 1552 1553 1554 1555 1556 1557 1557 1558 1558 1559 1560 1560 1561 1561 1562 1562 1562 1563 1562 1562 1562
1518 1521 1526 1527 1531 1526 1518 1519 1520 1521 1523 1523 1524 1527 1531 1530 1533 1534 1536 1536 1538 1540 1542 1544 1545 1547 1549 1551 1552 1553 1554 1555 1556 1557 1558 1558 1559 1559 1560 1560 1560 1561 1562 1562 1562 1563 1563 1563 1563
1518 1530 1534 1523 1526 1520 1518 1519 1520 1520 1521 1522 1522 1522 1524 1527 1531 1533 1534 1536 1537 1539 1541 1543 1545 1547 1548 1550 1551 1553 1554 1555 1556 1557 1558 1558 1559 1559 1560 1560 1561 1561 1561 1562 1562 1562 1562 1562 1563
1518 1532 1525 1516 1516 1517 1517 1517 1518 1521 1521 1521 1521 1522 1523 1525 1529 1530 1531 1533 1536 1537 1540 1542 1544 1546 1548 1549 1551 1553 1554 1555 1556 1557 1557 1558 1558 1559 1560 1560 1561 1560 1560 1560 1561 1561 1561 1561 1561
1518 1524 1517 1516 1516 1516 1516 1517 1517 1518 1520 1517 1516 1519 1521 1524 1527 1529 1531 1533 1535 1538 1539 1541 1543 1545 1547 1549 1550 1552 1553 1554 1555 1556 1557 1558 1558 1558 1558 1559 1559 1559 1559 1559 1559 1560 1560 1560 1560
1518 1515 1516 1515 1516 1516 1516 1517 1516 1515 1514 1514 1515 1517 1519 1521 1523 1525 1528 1531 1534 1536 1538 1540 1542 1544 1546 1547 1549 1551 1552 1553 1554 1555 1555 1556 1557 1558 1558 1559 1560 1560 1559 1559 1558 1558 1558 1558 1558
1515 1514 1515 1515 1515 1516 1516 1515 1516 1510 1512 1514 1514 1515 1516 1519 1521 1524 1527 1530 1532 1534 1536 1538 1540 1541 1543 1545 1547 1549 1550 1552 1553 1554 1555 1556 1557 1558 1559 1560 1560 1560 1559 1559 1558 1558 1558 1558 1558
1513 1513 1513 1514 1515 1515 1516 1516 1515 1507 1507 1510 1512 1513 1515 1516 1518 1522 1524 1526 1529 1531 1533 1536 1538 1540 1542 1543 1545 1547 1548 1550 1551 1552 1554 1555 1557 1558 1558 1558 1558 1559 1559 1558 1558 1557 1557 1557 1557
1513 1515 1513 1512 1513 1515 1515 1516 1512 1505 1507 1507 1508 1510 1512 1514 1516 1517 1520 1522 1524 1527 1530 1532 1535 1538 1540 1542 1544 1545 1547 1549 1550 1551 1553 1553 1554 1556 1556 1556 1557 1558 1558 1557 1557 1556 1556 1556 1555
1515 1517 1522 1511 1512 1514 1516 1520 1505 1505 1503 1505 1506 1508 1509 1511 1512 1515 1517 1519 1522 1524 1526 1530 1533 1535 1538 1540 1542 1543 1545 1546 1548 1549 1551 1552 1553 1554 1555 1555 1556 1556 1556 1556 1555 1555 1554 1554 1554
1521 1527 1524 1515 1512 1513 1516 1515 1505 1504 1504 1505 1506 1506 1507 1509 1511 1512 1513 1516 1518 1521 1524 1527 1530 1533 1536 1539 1541 1542 1544 1545 1546 1548 1549 1550 1551 1552 1553 1553 1554 1554 1554 1554 1553 1552 1552 1551 1551
1523 1524 1519 1518 1513 1514 1517 1516 1507 1504 1505 1504 1504 1505 1506 1506 1507 1509 1510 1512 1515 1518 1522 1525 1528 1531 1534 1537 1538 1540 1541 1543 1545 1546 1547 1548 1549 1549 1550 1551 1551 1551 1551 1551 1550 1550 1550 1549 1549
1511 1513 1515 1511 1511 1515 1517 1517 1509 1502 1502 1500 1500 1501 1502 1503 1504 1505 1508 1510 1513 1516 1518 1521 1524 1528 1531 1533 1535 1537 1538 1540 1542 1543 1544 1545 1546 1546 1547 1547 1547 1547 1547 1547 1547 1547 1547 1547 1547
1511 1513 1517 1514 1512 1515 1516 1514 1507 1503 1503 1498 1495 1498 1500 1501 1501 1500 1502 1506 1508 1512 1516 1519 1522 1526 1528 1531 1533 1535 1537 1538 1540 1541 1541 1542 1543 1543 1544 1544 1545 1545 1545 1545 1545 1545 1545 1545 1545
1512 1517 1517 1516 1515 1515 1516 1518 1513 1509 1506 1501 1499 1501 1500 1501 1500 1498 1497 1501 1507 1511 1514 1517 1520 1524 1526 1529 1531 1532 1534 1535 1536 1537 1538 1539 1540 1540 1541 1542 1542 1542 1542 1542 1542 1542 1541 1542 1541
1513 1508 1511 1515 1526 1536 1519 1538 1515 1514 1515 1509 1507 1504 1504 1502 1502 1500 1498 1500 1505 1510 1513 1517 1519 1522 1525 1527 1528 1530 1531 1533 1533 1535 1536 1536 1537 1537 1537 1538 1538 1539 1539 1538 1538 1538 1538 1538 1538
1508 1507 1512 1516 1529 1531 1526 1544 1519 1513 1518 1520 1515 1510 1506 1504 1504 1503 1502 1503 1505 1509 1512 1515 1518 1521 1523 1526 1527 1528 1529 1530 1531 1532 1532 1532 1533 1533 1533 1533 1534 1534 1535 1535 1535 1534 1534 1534 1534
1504 1512 1522 1531 1539 1552 1522 1526 1523 1517 1518 1520 1519 1516 1511 1507 1505 1505 1506 1506 1507 1509 1512 1514 1517 1519 1521 1524 1526 1527 1527 1527 1527 1528 1528 1528 1529 1529 1529 1528 1528 1529 1529 1530 1530 1530 1530 1529 1529
1504 1516 1552 1555 1565 1538 1523 1527 1521 1522 1520 1521 1520 1517 1515 1512 1508 1507 1507 1508 1510 1511 1512 1513 1515 1516 1518 1521 1523 1524 1525 1525 1524 1523 1523 1523 1524 1523 1524 1525 1524 1524 1524 1525 1525 1525 1525 1525 1525
1504 1506 1533 1546 1549 1529 1521 1527 1520 1522 1523 1522 1522 1520 1518 1515 1514 1512 1511 1511 1512 1513 1514 1515 1515 1516 1517 1518 1520 1521 1522 1521 1520 1519 1518 1517 1517 1518 1520 1521 1521 1520 1519 1519 1519 1519 1520 1519 1519
1503 1508 1501 1521 1526 1536 1524 1525 1525 1524 1524 1524 1523 1522 1521 1520 1518 1516 1515 1515 1514 1514 1515 1515 1516 1517 1516 1516 1516 1517 1517 1517 1516 1514 1513 1511 1510 1511 1512 1514 1514 1514 1514 1513 1513 1513 1514 1514 1514
1489 1490 1510 1519 1532 1524 1520 1520 1515 1519 1521 1523 1523 1524 1524 1524 1522 1520 1519 1517 1517 1517 1517 1516 1516 1516 1516 1515 1515 1514 1513 1511 1510 1509 1507 1506 1505 1505 1505 1507 1507 1507 1507 1507 1507 1507 1508 1508 1508
1492 1492 1493 1499 1512 1521 1520 1508 1500 1503 1514 1518 1521 1523 1523 1523 1523 1522 1522 1521 1519 1518 1516 1516 1515 1514 1513 1512 1511 1509 1508 1506 1505 1502 1500 1499 1499 1498 1498 1498 1499 1499 1499 1499 1499 1499 1500 1501 1502
1480 1483 1486 1499 1499 1514 1516 1508 1503 1504 1510 1515 1520 1522 1523 1524 1523 1522 1522 1522 1521 1519 1517 1516 1515 1514 1512 1510 1508 1505 1503 1501 1499 1496 1494 1492 1491 1491 1491 1491 1491 1491 1491 1491 1491 1492 1492 1493 1493
Wind_Speed
4 5 4 2 4 5 2 1 1 2 2 3 6 11 9 5 2 3 15 9 11 9 6 8 8 8 8 8 9 8 8 9 9 9 10 11 12 12 13 13 14 14 15 15 16 16 17 16 15
5 5 3 3 5 3 4 2 4 2 7 10 12 7 5 2 8 15 19 12 12 10 7 9 10 9 8 8 8 9 8 8 9 9 9 10 11 11 11 12 12 13 13 14 15 16 16 16 15
6 5 2 4 4 3 4 3 6 7 7 4 4 8 4 6 12 22 17 17 15 12 10 10 10 9 9 8 8 8 8 9 8 9 9 9 9 10 10 9 10 11 12 13 13 14 15 15 13
4 3 5 4 2 2 5 6 7 7 5 5 10 6 6 8 20 17 18 18 17 15 10 10 9 10 9 9 8 9 8 8 8 8 8 8 7 7 7 7 8 9 9 11 12 12 13 13 12
3 2 4 3 3 2 3 9 10 5 7 7 7 4 4 19 13 17 19 18 16 14 11 11 10 10 10 10 9 9 9 8 8 7 7 6 5 5 6 6 7 7 8 9 9 10 11 11 11
2 3 4 1 2 1 2 13 10 6 6 8 7 10 6 14 19 20 18 17 15 13 12 13 12 11 10 10 10 9 8 8 7 6 5 4 5 5 5 4 5 5 6 7 7 6 6 7 7
5 4 4 3 3 3 5 10 8 7 7 6 15 5 7 22 19 19 16 16 14 13 11 14 14 12 10 9 9 9 7 7 6 6 5 5 5 4 3 2 2 3 4 4 4 3 4 5 5
2 4 2 2 4 4 4 6 6 12 8 6 11 7 7 24 20 17 15 15 14 12 9 16 15 13 11 10 10 9 8 7 6 5 5 5 5 5 4 3 3 3 4 4 3 1 2 3 5
2 4 2 3 6 4 6 3 4 6 9 7 9 6 6 23 22 19 19 18 16 15 12 15 15 14 12 11 11 10 9 7 5 5 6 6 5 6 5 4 4 4 4 3 2 1 1 2 3
4 4 7 2 2 3 4 6 7 4 6 5 8 8 9 23 23 22 23 22 20 17 16 14 14 14 14 12 11 11 9 8 6 6 7 6 6 5 3 4 5 4 4 4 3 2 2 2 2
4 4 3 0 2 1 3 4 6 6 4 12 15 15 17 23 23 21 20 18 16 16 15 14 13 13 13 11 12 12 10 9 8 8 8 6 7 5 5 5 5 5 6 6 6 5 5 4 4
3 4 5 2 1 1 3 2 3 12 7 3 15 16 21 24 23 22 21 20 17 17 15 13 13 14 13 12 11 11 11 10 10 10 10 9 8 7 6 5 5 4 5 6 6 5 4 4 5
3 1 2 3 3 4 4 4 6 14 17 12 2 19 23 23 21 20 18 18 17 18 17 15 14 14 14 14 13 12 11 11 10 11 11 10 10 7 7 7 7 7 8 7 7 7 8 8 8
4 2 3 4 3 3 2 3 1 5 8 22 15 18 24 27 24 20 20 21 21 19 19 17 16 14 15 16 14 13 12 10 9 9 10 10 11 10 9 10 10 10 9 9 9 9 9 10 10
1 3 4 5 5 2 3 6 9 17 7 8 19 18 21 23 25 25 21 20 20 21 18 20 18 16 15 16 15 14 13 11 12 11 11 11 13 14 13 11 10 9 10 11 11 11 10 9 9
2 3 2 2 7 2 4 7 6 9 10 17 9 19 18 22 25 24 23 21 19 19 21 20 19 18 17 16 17 17 17 16 15 15 13 12 13 14 13 12 11 11 11 11 11 11 10 10 9
4 2 4 5 8 3 3 6 5 3 2 6 12 14 17 21 22 23 24 23 21 20 20 22 20 18 17 17 17 19 19 19 18 16 15 14 14 14 14 13 13 12 12 11 11 11 10 9 9
6 4 4 4 4 1 2 10 9 17 15 15 15 15 15 18 20 18 21 24 23 24 23 21 21 19 16 16 18 20 21 21 20 19 18 16 15 15 15 15 14 13 12 12 12 11 10 8 8
5 3 1 1 0 3 6 7 12 23 21 22 22 23 22 21 18 18 20 21 24 25 27 24 24 22 20 19 20 22 23 22 21 20 18 16 16 17 17 16 15 14 14 13 12 11 10 9 9
1 0 3 2 1 3 4 10 10 11 8 9 9 10 11 12 13 16 18 22 24 25 27 26 25 24 22 20 17 17 18 20 19 18 18 18 18 18 18 18 17 16 16 14 13 12 11 10 10
4 5 4 4 1 1 2 7 6 4 19 25 27 22 18 15 10 5 10 22 23 22 24 25 25 24 23 20 18 18 18 20 21 22 22 20 19 19 19 19 19 18 17 16 15 14 13 12 11
4 4 3 4 4 3 2 3 3 4 9 14 21 25 22 18 14 14 8 9 17 18 22 23 23 23 23 22 21 20 20 19 21 22 22 21 21 20 21 21 21 20 19 19 17 16 15 14 12
5 3 3 3 4 3 2 4 5 3 6 8 15 21 24 24 20 18 17 13 8 9 12 11 14 18 22 22 21 21 21 20 19 20 22 22 22 21 22 23 23 23 22 21 20 20 18 16 15
9 7 8 5 3 2 5 6 4 1 4 1 8 22 23 24 25 24 22 19 17 12 8 4 4 6 11 18 19 19 21 21 22 23 23 23 24 24 24 24 25 25 25 24 23 22 22 19 18
5 7 2 3 2 6 2 3 2 3 5 5 8 19 23 25 25 23 21 18 13 9 6 4 2 3 5 8 13 17 20 22 24 24 24 26 27 29 27 26 26 27 27 27 26 25 24 22 20
7 8 6 8 5 4 1 5 2 4 9 14 16 19 23 25 26 26 24 20 17 14 10 6 3 3 3 5 9 14 18 21 23 23 24 28 30 30 27 27 27 27 28 29 29 28 27 25 22
6 5 5 6 2 3 3 3 2 4 5 11 14 19 20 21 22 22 20 19 17 15 13 10 5 1 4 8 12 15 18 21 23 23 24 27 28 30 28 28 29 30 31 32 32 31 29 27 24
4 6 4 1 6 5 5 4 4 13 9 6 8 15 16 16 17 18 18 17 15 13 12 9 8 7 6 7 11 15 18 21 24 27 29 28 28 29 30 31 33 33 33 34 35 33 31 29 25
3 3 2 5 5 6 4 5 3 15 12 10 12 14 14 14 15 15 16 15 14 12 11 10 8 7 7 9 11 14 16 19 23 25 28 30 28 30 31 33 33 33 34 36 37 36 33 31 26
4 6 6 5 5 2 3 4 3 13 15 19 17 15 13 12 12 12 13 13 13 14 13 13 12 12 13 13 12 13 16 18 20 20 21 23 27 28 30 32 32 33 35 36 38 38 36 34 30
Wind_Direction
150 151 141 89 54 63 311 284 174 98 52 95 72 96 118 76 92 176 136 157 168 177 172 178 171 158 154 146 140 135 126 119 114 104 95 97 95 92 88 86 87 89 92 92 93 91 90 90 94
159 156 123 86 84 57 281 261 139 202 137 111 95 110 59 92 118 141 151 162 176 178 197 179 167 160 157 151 144 140 133 125 119 115 108 104 96 97 92 89 88 87 88 89 90 90 89 89 91
154 153 102 94 110 166 199 185 158 136 122 114 103 90 101 122 139 151 160 168 174 186 190 174 167 163 159 157 150 148 139 131 129 123 121 115 108 102 96 92 92 92 93 95 94 91 88 87 86
156 131 71 81 217 247 187 181 166 138 111 113 130 73 100 173 156 175 169 176 182 183 181 177 175 172 165 162 161 154 146 140 133 130 127 122 120 116 106 102 100 99 96 95 93 90 82 81 78
124 96 69 96 271 279 111 179 167 148 151 137 148 165 100 149 174 177 182 187 195 194 195 201 189 180 172 167 165 160 153 147 144 139 137 137 129 121 113 106 103 103 102 100 100 92 79 76 72
91 78 65 170 233 81 169 180 162 138 163 148 113 132 144 174 171 176 188 193 211 216 197 194 191 184 178 173 166 166 160 157 157 154 155 154 143 142 121 115 113 108 112 113 112 98 76 65 65
121 89 184 191 197 164 192 175 161 169 167 193 150 121 162 170 183 189 206 208 204 199 201 191 191 188 183 182 177 173 173 167 166 165 168 163 160 160 156 148 132 122 129 121 112 88 60 45 42
107 91 140 237 189 217 200 166 139 163 199 170 180 169 173 187 193 201 201 202 202 205 199 189 191 191 191 187 189 190 185 182 180 182 182 183 187 184 167 165 154 144 140 132 122 98 42 42 39
148 67 186 208 163 197 183 153 157 154 158 172 190 190 229 186 192 197 195 199 207 210 203 191 194 195 194 195 198 199 197 202 202 196 183 179 191 187 174 158 162 156 159 161 170 191 7 9 23
108 117 210 211 150 180 192 184 178 169 161 204 203 207 188 182 191 201 203 202 204 212 202 194 193 197 196 198 199 205 209 213 209 191 180 185 160 143 138 167 174 184 192 192 208 223 257 276 293
165 183 220 258 112 129 206 203 192 172 225 211 206 189 181 185 195 209 216 219 214 211 211 201 197 200 201 200 205 210 212 209 204 198 198 207 185 190 191 178 174 197 212 218 227 222 242 261 258
165 252 247 204 213 198 187 263 225 212 216 208 228 221 193 193 204 214 218 221 217 211 216 216 215 209 206 207 207 213 215 208 208 213 210 217 215 207 214 202 197 211 233 232 245 230 252 258 268
182 271 230 219 241 263 254 245 248 253 233 219 200 209 207 210 215 220 227 225 226 226 219 214 217 222 220 215 210 211 214 208 214 216 217 220 216 205 207 216 222 232 239 252 253 258 264 270 273
185 198 257 243 253 249 258 270 304 266 249 230 231 224 220 222 224 221 220 221 223 228 230 223 220 220 221 223 219 217 216 215 220 234 217 224 222 209 233 220 234 239 255 268 261 262 261 262 259
86 317 329 225 200 225 183 287 237 254 271 228 224 222 223 225 225 228 232 229 226 225 227 229 228 226 227 225 222 220 220 224 231 245 229 241 234 228 245 253 256 257 258 264 266 268 268 268 268
65 52 349 296 152 163 125 272 292 309 249 229 222 213 219 223 227 234 236 235 232 227 225 228 231 234 234 231 226 219 220 226 233 243 245 244 239 239 247 254 255 258 259 262 264 264 267 268 268
12 217 207 308 199 121 138 263 265 33 33 246 235 229 231 232 233 241 240 237 235 234 231 229 232 237 240 235 231 224 226 233 239 245 254 253 245 244 247 252 256 258 259 261 260 260 260 263 268
195 205 225 227 220 156 177 263 281 275 287 272 263 252 260 247 246 244 241 236 231 234 235 237 236 236 238 239 231 228 229 233 239 248 252 250 250 247 245 248 253 255 259 260 257 255 255 256 263
138 165 218 277 146 144 244 268 278 283 286 274 261 258 262 256 264 254 240 237 230 228 230 231 231 232 231 232 230 230 233 235 240 247 252 250 248 245 246 248 250 252 254 255 252 249 251 259 268
338 27 258 300 86 146 314 286 274 307 316 338 313 283 282 277 280 260 243 232 229 228 228 229 229 233 238 244 251 251 253 250 251 254 255 256 251 249 248 250 252 254 257 257 254 253 257 258 262
189 180 213 205 15 295 337 304 359 22 42 55 63 73 73 63 50 30 227 218 222 227 231 233 234 234 237 246 244 248 246 248 249 250 254 258 256 253 252 252 253 254 256 255 253 252 252 255 260
202 193 191 158 94 219 37 268 18 12 27 33 37 56 57 59 61 59 66 191 210 218 223 231 236 239 241 242 243 252 267 271 271 268 267 266 263 260 257 256 255 255 255 254 253 250 250 252 256
200 112 115 90 99 43 303 100 262 246 27 7 16 56 65 65 64 66 69 85 137 184 208 219 227 232 236 242 247 257 269 279 278 275 268 264 264 262 259 257 256 256 255 254 252 250 248 249 252
144 79 47 53 70 355 219 154 271 250 152 111 51 64 70 76 81 81 81 91 97 110 129 156 223 241 239 238 247 262 273 280 280 283 275 266 266 266 264 261 258 256 253 252 253 251 248 248 253
92 90 21 2 1 223 10 115 257 6 81 119 87 73 71 76 80 82 82 82 87 98 121 156 201 252 245 237 249 264 276 282 285 286 285 277 271 268 268 269 265 261 258 254 251 251 249 250 256
181 154 156 198 193 237 68 221 256 103 86 99 91 84 80 77 76 77 77 80 80 81 88 98 134 191 209 226 246 261 272 280 284 285 282 278 274 271 272 273 272 265 258 253 251 250 248 248 252
191 189 166 104 24 72 187 97 2 140 108 105 92 84 75 73 74 74 73 71 70 69 64 62 67 109 241 246 251 257 267 274 278 281 282 281 276 272 270 271 272 268 261 254 251 250 248 247 249
155 167 87 16 154 213 236 201 221 186 166 134 99 91 81 73 67 65 65 65 61 56 49 38 27 7 338 301 287 282 278 275 276 275 273 275 281 278 271 267 271 269 261 255 252 250 246 245 246
145 184 135 125 152 166 175 244 279 173 156 140 126 110 96 81 70 66 62 60 58 55 48 39 26 6 337 320 306 294 290 284 279 278 274 273 272 272 269 267 267 271 267 258 252 249 244 244 242
177 180 164 144 211 227 141 257 7 134 140 137 130 121 108 95 86 79 67 58 53 49 45 39 30 19 8 356 338 320 310 303 298 291 282 276 270 268 269 268 267 267 268 264 255 250 244 240 235